Weather History for KJYG - December, 2012

Change the Weather History Date:

Wednesday, December 12, 2012

  Actual Average Record
Temperature  
Mean Temperature - -  
Max Temperature - 29 °F 51 °F (1998)
Min Temperature - 12 °F -13 °F (2000)
Moisture  
Dew Point -    
Average Humidity    
Maximum Humidity    
Minimum Humidity    
Precipitation  
Precipitation 0.00 in - - ()
Sea Level Pressure  
Sea Level Pressure 29.87 in    
Wind  
Wind Speed 8 mph (SSE)    
Max Wind Speed 21 mph    
Max Gust Speed 24 mph    
Visibility 10 miles    
Events      
Averages and records for this station are not official NWS values.
T = Trace of Precipitation, MM = Missing Value Source: NWS Daily Summary

Daily Weather History Graph

Daily Weather History Graph

Search for Another Location

Airport or City:

Trip Planner

Search our weather history database for the weather conditions in past years. The results will help you decide how hot, cold, wet, or windy it might be!

Date:

Astronomy

Dec. 12, 2012 Rise Set
Actual Time 7:44 AM CST 4:40 PM CST
Civil Twilight 7:11 AM CST 5:13 PM CST
Nautical Twilight 6:34 AM CST 5:49 PM CST
Astronomical Twilight 5:59 AM CST 6:24 PM CST
Moon 6:48 AM CST (12/12) 4:18 PM CST (12/12)
Length of Visible Light 10h 02m
Length of Day
8h 56m
Waning Crescent, 1% of the Moon is Illuminated
Dec 12
Waning Crescent
Dec 13
New
Dec 19
First Quarter
Dec 28
Full
Jan 4
Last Quarter

Hourly Weather History & Observations

Time (CST) Temp. Dew Point Humidity Pressure Visibility Wind Dir Wind Speed Gust Speed Precip Events Conditions
12:15 AM - - N/A% 29.95 in 4.0 mi Calm Calm - N/A   Haze
12:35 AM - - N/A% 29.94 in 7.0 mi Calm Calm - N/A   Clear
12:55 AM - - N/A% 29.94 in 10.0 mi ESE 6.9 mph - N/A   Clear
1:15 AM - - N/A% 29.93 in 10.0 mi ESE 8.1 mph - N/A   Clear
1:35 AM - - N/A% 29.93 in 10.0 mi Calm Calm - N/A   Clear
1:55 AM - - N/A% 29.92 in 10.0 mi ESE 9.2 mph - N/A   Clear
2:15 AM - - N/A% 29.92 in 10.0 mi Calm Calm - N/A   Clear
2:35 AM - - N/A% 29.92 in 10.0 mi ESE 6.9 mph - N/A   Clear
2:55 AM - - N/A% 29.92 in 10.0 mi ESE 9.2 mph - N/A   Clear
3:15 AM - - N/A% 29.91 in 10.0 mi SE 8.1 mph - N/A   Clear
3:35 AM - - N/A% 29.90 in 10.0 mi Calm Calm - N/A   Clear
3:55 AM - - N/A% 29.88 in 10.0 mi SE 10.4 mph - N/A   Scattered Clouds
4:14 AM - - N/A% 29.87 in 10.0 mi SSE 9.2 mph - N/A   Mostly Cloudy
4:35 AM - - N/A% 29.86 in 10.0 mi SSE 12.7 mph - N/A   Overcast
4:55 AM - - N/A% 29.86 in 10.0 mi SSE 12.7 mph - N/A   Overcast
5:15 AM - - N/A% 29.86 in 10.0 mi SSE 12.7 mph - N/A   Overcast
5:35 AM - - N/A% 29.85 in 10.0 mi SSE 13.8 mph - N/A   Overcast
5:55 AM - - N/A% 29.85 in 10.0 mi SSE 15.0 mph - N/A   Overcast
6:15 AM - - N/A% 29.85 in 10.0 mi South 12.7 mph - N/A   Overcast
6:35 AM - - N/A% 29.85 in 10.0 mi South 15.0 mph 19.6 mph N/A   Mostly Cloudy
6:55 AM - - N/A% 29.85 in 10.0 mi South 16.1 mph - N/A   Scattered Clouds
7:14 AM - - N/A% 29.85 in 10.0 mi South 17.3 mph - N/A   Clear
7:35 AM - - N/A% 29.85 in 10.0 mi South 16.1 mph - N/A   Clear
7:55 AM - - N/A% 29.85 in 10.0 mi South 16.1 mph - N/A   Clear
8:15 AM - - N/A% 29.86 in 10.0 mi South 18.4 mph - N/A   Scattered Clouds
8:35 AM - - N/A% 29.86 in 10.0 mi South 20.7 mph - N/A   Scattered Clouds
8:55 AM - - N/A% 29.86 in 10.0 mi South 19.6 mph 24.2 mph N/A   Scattered Clouds
9:15 AM - - N/A% 29.86 in 10.0 mi South 18.4 mph - N/A   Mostly Cloudy
9:34 AM - - N/A% 29.86 in 10.0 mi South 17.3 mph 21.9 mph N/A   Scattered Clouds
9:55 AM - - N/A% 29.86 in 10.0 mi South 15.0 mph - N/A   Mostly Cloudy
10:14 AM - - N/A% 29.86 in 10.0 mi South 18.4 mph - N/A   Scattered Clouds
10:35 AM - - N/A% 29.86 in 10.0 mi South 16.1 mph - N/A   Clear
10:55 AM - - N/A% 29.86 in 10.0 mi South 16.1 mph - N/A   Clear
11:15 AM - - N/A% 29.85 in 10.0 mi South 15.0 mph - N/A   Clear
11:35 AM - - N/A% 29.84 in 10.0 mi South 15.0 mph - N/A   Clear
11:55 AM - - N/A% 29.83 in 10.0 mi South 13.8 mph 18.4 mph N/A   Clear
12:15 PM - - N/A% 29.83 in 10.0 mi South 11.5 mph - N/A   Clear
12:35 PM - - N/A% 29.82 in 10.0 mi SSE 10.4 mph - N/A   Clear
12:55 PM - - N/A% 29.82 in 10.0 mi South 8.1 mph - N/A   Clear
1:14 PM - - N/A% 29.82 in 10.0 mi Calm Calm - N/A   Clear
1:35 PM - - N/A% 29.82 in 10.0 mi Calm Calm - N/A   Clear
1:55 PM - - N/A% 29.82 in 10.0 mi Calm Calm - N/A   Clear
2:15 PM - - N/A% 29.82 in 10.0 mi Calm Calm - N/A   Clear
2:35 PM - - N/A% 29.82 in 10.0 mi Calm Calm - N/A   Clear
2:54 PM - - N/A% 29.82 in 10.0 mi Calm Calm - N/A   Clear
3:15 PM - - N/A% 29.82 in 10.0 mi Calm Calm - N/A   Clear
3:34 PM - - N/A% 29.83 in 10.0 mi Calm Calm - N/A   Clear
3:55 PM - - N/A% 29.83 in 10.0 mi South 6.9 mph - N/A   Clear
4:14 PM - - N/A% 29.83 in 10.0 mi Calm Calm - N/A   Clear
4:35 PM - - N/A% 29.84 in 10.0 mi Calm Calm - N/A   Clear
4:54 PM - - N/A% 29.84 in 10.0 mi Calm Calm - N/A   Clear
5:15 PM - - N/A% 29.85 in 10.0 mi Calm Calm - N/A   Clear
5:35 PM - - N/A% 29.85 in 10.0 mi Calm Calm - N/A   Clear
6:15 PM - - N/A% 29.86 in 10.0 mi South 8.1 mph - N/A   Clear
6:35 PM - - N/A% 29.86 in 10.0 mi Calm Calm - N/A   Clear
6:55 PM - - N/A% 29.87 in 10.0 mi Calm Calm - N/A   Clear
7:15 PM - - N/A% 29.87 in 10.0 mi Calm Calm - N/A   Clear
7:35 PM - - N/A% 29.87 in 10.0 mi Calm Calm - N/A   Clear
7:55 PM - - N/A% 29.88 in 10.0 mi South 12.7 mph - N/A   Clear
8:14 PM - - N/A% 29.88 in 10.0 mi South 12.7 mph - N/A   Clear
8:35 PM - - N/A% 29.88 in 10.0 mi South 12.7 mph - N/A   Clear
8:54 PM - - N/A% 29.88 in 10.0 mi SSE 15.0 mph - N/A   Clear
9:15 PM - - N/A% 29.88 in 10.0 mi South 15.0 mph 18.4 mph N/A   Clear
9:35 PM - - N/A% 29.88 in 10.0 mi South 17.3 mph - N/A   Clear
9:55 PM - - N/A% 29.89 in 10.0 mi South 17.3 mph - N/A   Clear
10:15 PM - - N/A% 29.89 in 10.0 mi South 17.3 mph 21.9 mph N/A   Clear
10:35 PM - - N/A% 29.89 in 10.0 mi South 19.6 mph - N/A   Clear
10:55 PM - - N/A% 29.89 in 10.0 mi South 19.6 mph - N/A   Clear
11:15 PM - - N/A% 29.89 in 10.0 mi South 19.6 mph - N/A   Clear
11:34 PM - - N/A% 29.89 in 10.0 mi South 18.4 mph - N/A   Clear
11:55 PM - - N/A% 29.89 in 10.0 mi South 18.4 mph - N/A   Clear